This demonstration page uses our WeatherBlox Daily Observations layout. Learn more.

Left ArrowRight Arrow

34.16533, -84.80231

Hourly Observations for July 23, 2017

Temp ( °F °C ) Dew Point ( °F °C ) Humidity (%) Winds ( mph kmh ) Pressure ( in mb ) Visibility ( mi km ) Precip ( " mm )
12:53 am 00:53 Clear with Mist and Fog 74 23.3 74 23.3 100 100 Calm 29.94 1014 5 8 0.00 0.00
1:53 am 01:53 Clear with Mist and Fog 74 23.3 74 23.3 100 100 Calm 29.93 1014 6 10 0.00 0.00
2:53 am 02:53 Clear with Mist and Fog 73 22.8 73 22.8 100 100 Calm 29.92 1013 6 10 0.00 0.00
3:53 am 03:53 Mostly Clear with Mist and Fog 73 22.8 73 22.8 100 100 Calm 29.91 1013 6 10 0.00 0.00
4:53 am 04:53 Partly Cloudy with Mist and Fog 72 22.2 72 22.2 100 100 Calm 29.91 1013 5 8 0.00 0.00
5:53 am 05:53 Clear with Mist and Fog 72 22.2 72 22.2 100 100 Calm 29.92 1013 6 10 0.00 0.00
6:53 am 06:53 Sunny with Mist and Fog 71 21.7 71 21.7 100 100 Calm 29.93 1014 4 6 0.00 0.00
7:53 am 07:53 Sunny with Mist and Fog 75 23.9 74 23.3 96 96 Calm 29.94 1014 6 10 0.00 0.00
8:53 am 08:53 Sunny 78 25.6 75 23.9 90 90 Calm 29.95 1014 7 11 0.00 0.00
9:53 am 09:53 Sunny 83 28.3 76 24.4 79 79 Calm 29.95 1014 8 13 0.00 0.00
10:53 am 10:53 Sunny 86 30 77 25 75 75 Calm 29.95 1014 8 13 0.00 0.00
11:53 am 11:53 Mostly Cloudy 86 30 76 24.4 72 72 SW 5 7 29.94 1014 8 13 0.00 0.00
12:53 pm 12:53 Mostly Sunny 89 31.7 76 24.4 65 65 VRB 5 7 29.92 1013 9 14 0.00 0.00
1:53 pm 13:53 Mostly Sunny 91 32.8 74 23.3 57 57 Calm 29.90 1012 10 16 0.00 0.00
2:53 pm 14:53 Mostly Sunny 89 31.7 74 23.3 61 61 Calm 29.88 1012 10 16 0.00 0.00
3:53 pm 15:53 Sunny 91 32.8 73 22.8 56 56 Calm 29.86 1011 10 16 0.00 0.00
4:53 pm 16:53 Sunny 90 32.2 73 22.8 58 58 Calm 29.85 1011 10 16 0.00 0.00
5:48 pm 17:48 Sunny with Nearby Thunderstorms 90 32 73 23 59 59 VRB 3 6 29.85 1011 10 16 0.00 0.00
5:53 pm 17:53 Sunny with Nearby Thunderstorms 89 31.7 74 23.3 61 61 Calm 29.83 1010 10 16 0.00 0.00
6:17 pm 18:17 Mostly Cloudy with Thunderstorms 85 29.4 76 24.4 75 75 undefined N/A 29.85 1011 3 4 0.00 0.00
6:24 pm 18:24 Mostly Cloudy with Thunderstorms 82 27.8 74 23.3 77 77 VRB 5 7 29.88 1012 2 3 0.00 0.00
6:29 pm 18:29 Cloudy with Strong Thunderstorms 78 25.6 76 24.4 93 93 VRB 6 9 29.88 1012 1 1 0.23 5.84
6:36 pm 18:36 Cloudy with Strong Thunderstorms 73 22.8 72 22.2 96 96 VRB 6 9 29.94 1014 0 0 0.59 14.99
6:41 pm 18:41 Cloudy with Strong Thunderstorms 72 22.2 72 22.2 100 100 N 9 15 29.94 1014 1 1 0.70 17.78
6:53 pm 18:53 Cloudy with Thunderstorms 72 22.2 71 21.7 97 97 Calm 29.89 1012 1 2 0.83 21.08
7:04 pm 19:04 Cloudy with Strong Thunderstorms 71 21.7 71 21.7 100 100 VRB 5 7 29.91 1013 1 2 0.08 2.03
7:15 pm 19:15 Mostly Cloudy with Thunderstorms 73 22.8 73 22.8 100 100 S 3 6 29.91 1013 3 5 0.11 2.79
7:30 pm 19:30 Partly Cloudy with Nearby Thunderstorms 74 23.3 74 23.3 100 100 S 3 6 29.91 1013 8 13 0.11 2.79
7:44 pm 19:44 Mostly Sunny 74 23.3 74 23.3 100 100 Calm 29.91 1013 7 11 0.11 2.79
7:53 pm 19:53 Sunny 74 23.3 74 23.3 100 100 Calm 29.86 1011 8 13 0.11 2.79
8:53 pm 20:53 Clear 74 23.3 74 23.3 100 100 Calm 29.86 1011 7 11 0.00 0.00
9:53 pm 21:53 Cloudy with Mist and Fog 74 23.3 74 23.3 100 100 S 3 6 29.88 1012 6 10 0.00 0.00
10:53 pm 22:53 Mostly Clear with Mist and Fog 74 23.3 74 23.3 100 100 Calm 29.91 1013 5 8 0.00 0.00
11:53 pm 23:53 Partly Cloudy with Mist and Fog 75 23.9 75 23.9 100 100 Calm 29.91 1013 6 10 0.00 0.00

Powered by AerisWeather